Back to catalog

STARLINK-32772

AliveCommunicationsVLEO
NORAD 63033·PAYLOAD·🇺🇸 United States

Launched Feb 18, 2025 from Cape Canaveral Space Force Station

Loading…

Next Passes (next 24 hours)

TLE

FreshSource: CelesTrak SupGP

Epoch: Sep 14, 2026, 22:52 UTC

1 63033C 25034E   26257.95326389 -.00100240  00000+0 -32247-2 0  2571
2 63033  53.1566  97.9998 0001183  90.7201  77.4184 15.31739925    13

Track STARLINK-32772 in real time with AllMySat

Download on the App Store